VU2EOJ-13 Weather Reports


time (UTC)temp
F
wind
direction
speed
knots
gust
knots
rain 1hr
in
rain 24hr
in
rain mn
in
humidity
%
barometer
mb
20221207230849 80 0.0 0.0 0.00 0.00 0.00 75 1011.1
20221207225914 80 0.0 0.0 0.00 0.00 0.00 75 1011.0
20221207224938 80 0.0 0.0 0.00 0.00 0.00 75 1010.9
20221207223957 80 0.0 0.0 0.00 0.00 0.00 74 1011.0
20221207223020 80 0.0 0.0 0.00 0.00 0.00 74 1010.9
20221207222043 80 0.0 0.0 0.00 0.00 0.00 73 1011.0
20221207221106 80 0.0 0.0 0.00 0.00 0.00 73 1011.0
20221207220128 80 0.0 0.0 0.00 0.00 0.00 73 1011.0
20221207215151 81 0.0 0.0 0.00 0.00 0.00 73 1010.9
20221207214215 81 0.0 0.0 0.00 0.00 0.00 72 1011.0
20221207213244 81 0.0 0.0 0.00 0.00 0.00 71 1011.0
20221207210801 81 0.0 0.0 0.00 0.00 0.00 69 1011.2
20221207205646 81 0.0 0.0 0.00 0.00 0.00 67 1011.2
20221207204714 82 0.0 0.0 0.00 0.00 0.00 67 1011.3
20221207203606 82 0.0 0.0 0.00 0.00 0.00 66 1011.2
20221207202622 82 0.0 0.0 0.00 0.00 0.00 66 1011.3
20221207201642 82 0.0 0.0 0.00 0.00 0.00 72 1011.2
20221207200703 82 0.0 0.0 0.00 0.00 0.00 71 1011.3
20221207195721 82 0.0 0.0 0.00 0.00 0.00 70 1011.4
20221207194735 82 0.0 0.0 0.00 0.00 0.00 66 1011.5
20221207193803 82 0.0 0.0 0.00 0.00 0.00 63 1011.8
20221207192824 82 0.0 0.0 0.00 0.00 0.00 63 1011.7
20221207191848 82 0.0 0.0 0.00 0.00 0.00 63 1011.7
20221207190847 82 0.0 0.0 0.00 0.00 0.00 63 1011.8
20221207185724 82 0.0 0.0 0.00 0.00 0.00 64 1011.7
20221207184738 82 0.0 0.0 0.00 0.00 0.00 62 1011.8
20221207183744 82 0.0 0.0 0.00 0.00 0.00 60 1011.9
20221207182808 83 0.0 0.0 0.00 0.00 0.00 60 1012.0
20221207181821 83 0.0 0.0 0.00 0.00 0.00 60 1012.0
20221207180845 83 0.0 0.0 0.00 0.00 0.00 60 1012.1
20221207174734 83 0.0 0.0 0.00 0.00 0.00 60 1012.4
20221207173800 83 0.0 0.0 0.00 0.00 0.00 60 1012.6
20221207172807 83 0.0 0.0 0.00 0.00 0.00 60 1012.7
20221207171838 83 0.0 0.0 0.00 0.00 0.00 60 1012.8
20221207170859 83 0.0 0.0 0.00 0.00 0.00 61 1012.8
20221207165930 83 0.0 0.0 0.00 0.00 0.00 60 1012.9
20221207164958 83 0.0 0.0 0.00 0.00 0.00 60 1012.8
20221207164033 83 0.0 0.0 0.00 0.00 0.00 61 1012.8
20221207163054 83 0.0 0.0 0.00 0.00 0.00 61 1012.9
20221207162008 83 0.0 0.0 0.00 0.00 0.00 61 1012.8
20221207161035 84 0.0 0.0 0.00 0.00 0.00 60 1012.8
20221207153619 84 0.0 0.0 0.00 0.00 0.00 61 1012.6
20221207152637 84 0.0 0.0 0.00 0.00 0.00 61 1012.5
20221207145300 84 0.0 0.0 0.00 0.00 0.00 61 1012.3
20221207144322 84 0.0 0.0 0.00 0.00 0.00 61 1012.2
20221207143348 84 0.0 0.0 0.00 0.00 0.00 61 1012.0
20221207142411 84 0.0 0.0 0.00 0.00 0.00 59 1011.9
20221207141441 84 0.0 0.0 0.00 0.00 0.00 59 1011.8
20221207135321 85 0.0 0.0 0.00 0.00 0.00 57 1011.5
20221207133402 85 0.0 0.0 0.00 0.00 0.00 54 1011.2
20221207132422 85 0.0 0.0 0.00 0.00 0.00 53 1011.0
20221207131445 85 0.0 0.0 0.00 0.00 0.00 52 1011.0
20221207130509 85 0.0 0.0 0.00 0.00 0.00 53 1010.8
20221207125534 85 0.0 0.0 0.00 0.00 0.00 53 1010.8
20221207124555 85 0.0 0.0 0.00 0.00 0.00 55 1010.6
20221207123234 85 0.0 0.0 0.00 0.00 0.00 58 1010.3
20221207122305 86 0.0 0.0 0.00 0.00 0.00 57 1010.2
20221207120309 86 0.0 0.0 0.00 0.00 0.00 58 1009.9
20221207114840 86 0.0 0.0 0.00 0.00 0.00 62 1009.8
20221207113857 86 0.0 0.0 0.00 0.00 0.00 63 1009.6
20221207112919 86 0.0 0.0 0.00 0.00 0.00 63 1009.7
20221207111944 86 0.0 0.0 0.00 0.00 0.00 63 1009.5
20221207111011 87 0.0 0.0 0.00 0.00 0.00 65 1009.4
20221207110034 87 0.0 0.0 0.00 0.00 0.00 64 1009.4
20221207105059 87 0.0 0.0 0.00 0.00 0.00 61 1009.2
20221207103753 88 0.0 0.0 0.00 0.00 0.00 48 1009.2
20221207101529 88 0.0 0.0 0.00 0.00 0.00 49 1009.0
20221207100444 87 0.0 0.0 0.00 0.00 0.00 50 1009.0
20221207095446 88 0.0 0.0 0.00 0.00 0.00 49 1008.9
20221207093532 88 0.0 0.0 0.00 0.00 0.00 50 1009.0
20221207092555 88 0.0 0.0 0.00 0.00 0.00 51 1009.1
20221207091618 88 0.0 0.0 0.00 0.00 0.00 50 1009.1
20221207090646 88 0.0 0.0 0.00 0.00 0.00 51 1009.3
20221207085535 88 0.0 0.0 0.00 0.00 0.00 51 1009.3
20221207083830 87 0.0 0.0 0.00 0.00 0.00 52 1009.6
20221207082648 88 0.0 0.0 0.00 0.00 0.00 50 1009.6
20221207081711 87 0.0 0.0 0.00 0.00 0.00 49 1009.9
20221207080738 87 0.0 0.0 0.00 0.00 0.00 49 1010.1
20221207075759 87 0.0 0.0 0.00 0.00 0.00 51 1010.3
20221207074824 87 0.0 0.0 0.00 0.00 0.00 53 1010.6
20221207072912 87 0.0 0.0 0.00 0.00 0.00 56 1011.0
20221207071000 87 0.0 0.0 0.00 0.00 0.00 55 1011.6
20221207064104 86 0.0 0.0 0.00 0.00 0.00 61 1012.3
20221207063125 86 0.0 0.0 0.00 0.00 0.00 62 1012.6
20221207061202 85 0.0 0.0 0.00 0.00 0.00 66 1012.9
20221207060221 84 0.0 0.0 0.00 0.00 0.00 66 1013.2
20221207055244 84 0.0 0.0 0.00 0.00 0.00 67 1013.3
20221207054307 84 0.0 0.0 0.00 0.00 0.00 70 1013.5
20221207052354 83 0.0 0.0 0.00 0.00 0.00 76 1013.7
20221207051421 83 0.0 0.0 0.00 0.00 0.00 80 1013.8
20221207050444 83 0.0 0.0 0.00 0.00 0.00 82 1014.0
20221207045504 83 0.0 0.0 0.00 0.00 0.00 83 1014.0
20221207044523 83 0.0 0.0 0.00 0.00 0.00 84 1014.0
20221207043545 83 0.0 0.0 0.00 0.00 0.00 86 1014.2
20221207042613 82 0.0 0.0 0.00 0.00 0.00 87 1014.1
20221207041634 82 0.0 0.0 0.00 0.00 0.00 88 1014.1
20221207040659 82 0.0 0.0 0.00 0.00 0.00 88 1014.0
20221207035722 81 0.0 0.0 0.00 0.00 0.00 89 1014.1
20221207034745 81 0.0 0.0 0.00 0.00 0.00 89 1014.1
20221207033813 80 0.0 0.0 0.00 0.00 0.00 90 1014.0
20221207032801 81 0.0 0.0 0.00 0.00 0.00 89 1014.0
20221207031828 81 0.0 0.0 0.00 0.00 0.00 89 1013.8
20221207030853 81 0.0 0.0 0.00 0.00 0.00 89 1013.7
20221207025918 81 0.0 0.0 0.00 0.00 0.00 89 1013.5
20221207024940 80 0.0 0.0 0.00 0.00 0.00 89 1013.3
20221207024004 81 0.0 0.0 0.00 0.00 0.00 88 1013.2
20221207022051 81 0.0 0.0 0.00 0.00 0.00 87 1013.0
20221207021117 81 0.0 0.0 0.00 0.00 0.00 87 1012.9
20221207020139 81 0.0 0.0 0.00 0.00 0.00 87 1012.8
20221207015206 81 0.0 0.0 0.00 0.00 0.00 87 1012.6
20221207014157 81 0.0 0.0 0.00 0.00 0.00 88 1012.4
20221207012219 80 0.0 0.0 0.00 0.00 0.00 88 1012.2
20221207010307 80 0.0 0.0 0.00 0.00 0.00 88 1012.1
20221207005232 80 0.0 0.0 0.00 0.00 0.00 87 1012.1
20221207004241 80 0.0 0.0 0.00 0.00 0.00 87 1012.0
20221207003305 80 0.0 0.0 0.00 0.00 0.00 86 1011.9
20221207002324 81 0.0 0.0 0.00 0.00 0.00 86 1011.7
20221207001353 81 0.0 0.0 0.00 0.00 0.00 86 1011.7
20221207000355 81 0.0 0.0 0.00 0.00 0.00 85 1011.6
20221206235421 81 0.0 0.0 0.00 0.00 0.00 85 1011.6
20221206233442 81 0.0 0.0 0.00 0.00 0.00 84 1011.7
20221206232504 81 0.0 0.0 0.00 0.00 0.00 84 1011.6
20221206231526 81 0.0 0.0 0.00 0.00 0.00 83 1011.6